FW4080 Weather Reports


Display with metric or nautical units.
time (UTC)temp
F
wind
direction
speed
MPH
gust
MPH
rain 1hr
in
rain 24hr
in
rain mn
in
humidity
%
barometer
mb
20260510230101 63 117 1.0 5.0 0.00 0.00 0.00 46 1018.2
20260510224559 64 50 1.0 4.0 0.00 0.00 0.00 46 1018.4
20260510223057 63 350 0.0 2.0 0.00 0.00 0.00 47 1018.3
20260510221600 63 334 0.0 4.0 0.00 0.00 0.00 45 1018.2
20260510220056 64 239 0.0 4.0 0.00 0.00 0.00 44 1018.4
20260510214556 65 346 0.0 2.0 0.00 0.00 0.00 47 1017.9
20260510213106 66 360 1.0 4.0 0.00 0.00 0.00 43 1017.7
20260510211554 67 30 0.0 2.0 0.00 0.00 0.00 42 1017.5
20260510210052 66 79 0.0 3.0 0.00 0.00 0.00 44 1017.4
20260510204550 66 181 1.0 5.0 0.00 0.00 0.00 44 1017.4
20260510203050 66 58 0.0 3.0 0.00 0.00 0.00 45 1017.5
20260510201555 64 301 0.0 3.0 0.00 0.00 0.00 45 1017.6
20260510200049 66 315 0.0 6.0 0.00 0.00 0.00 45 1017.7
20260510194553 67 98 1.0 4.0 0.00 0.00 0.00 43 1017.8
20260510193052 66 238 0.0 3.0 0.00 0.00 0.00 46 1017.7
20260510191552 66 65 1.0 4.0 0.00 0.00 0.00 43 1017.8
20260510190058 66 212 0.0 7.0 0.00 0.00 0.00 48 1017.8
20260510184542 66 1 0.0 5.0 0.00 0.00 0.00 46 1017.6
20260510183042 66 210 1.0 5.0 0.00 0.00 0.00 44 1017.7
20260510181545 67 322 0.0 4.0 0.00 0.00 0.00 46 1017.6
20260510180056 66 342 0.0 5.0 0.00 0.00 0.00 42 1017.6
20260510174539 66 111 0.0 2.0 0.00 0.00 0.00 44 1017.3
20260510173045 66 191 1.0 5.0 0.00 0.00 0.00 43 1017.2
20260510171535 66 89 1.0 5.0 0.00 0.00 0.00 44 1017.2
20260510170035 66 183 0.0 5.0 0.00 0.00 0.00 46 1017.1
20260510164539 65 97 1.0 3.0 0.00 0.00 0.00 44 1017.4
20260510163046 65 64 1.0 7.0 0.00 0.00 0.00 44 1017.4
20260510161535 66 15 0.0 4.0 0.00 0.00 0.00 47 1017.3
20260510160029 65 125 2.0 4.0 0.00 0.00 0.00 46 1017.4
20260510154530 64 23 0.0 3.0 0.00 0.00 0.00 47 1017.3
20260510153025 65 121 0.0 4.0 0.00 0.00 0.00 47 1017.0
20260510151523 63 243 0.0 6.0 0.00 0.00 0.00 50 1016.7
20260510150023 62 50 0.0 4.0 0.00 0.00 0.00 49 1016.7
20260510144518 62 89 0.0 4.0 0.00 0.00 0.00 53 1016.5
20260510143029 62 65 0.0 3.0 0.00 0.00 0.00 53 1016.2
20260510141514 61 145 0.0 5.0 0.00 0.00 0.00 53 1016.0
20260510140012 60 167 1.0 6.0 0.00 0.00 0.00 53 1015.8
20260510134511 59 136 0.0 3.0 0.00 0.00 0.00 57 1015.7
20260510133010 57 138 0.0 3.0 0.00 0.00 0.00 58 1015.6
20260510131508 56 111 1.0 5.0 0.00 0.00 0.00 63 1015.5
20260510130005 55 90 0.0 2.0 0.00 0.00 0.00 67 1015.4
20260510124504 54 322 0.0 2.0 0.00 0.01 0.00 69 1015.4
20260510123002 54 91 1.0 4.0 0.00 0.01 0.00 70 1015.0
20260510121559 54 65 0.0 2.0 0.00 0.01 0.00 69 1014.6
20260510120059 54 77 0.0 1.0 0.00 0.01 0.00 70 1014.6
20260510114558 54 308 0.0 3.0 0.00 0.01 0.00 69 1014.6
20260510113054 54 311 0.0 1.0 0.00 0.01 0.00 70 1014.3
20260510111553 54 310 0.0 2.0 0.00 0.01 0.00 71 1014.1
20260510110054 54 300 0.0 1.0 0.00 0.01 0.00 72 1013.6
20260510104552 55 138 0.0 1.0 0.00 0.01 0.00 72 1013.5
20260510103046 55 270 0.0 5.0 0.00 0.01 0.00 70 1013.2
20260510101544 55 302 0.0 3.0 0.00 0.01 0.00 70 1012.9
20260510094551 56 287 0.0 2.0 0.00 0.06 0.00 73 1012.5
20260510093038 56 356 0.0 3.0 0.00 0.06 0.00 72 1012.2
20260510091532 57 249 0.0 3.0 0.00 0.06 0.00 72 1012.0
20260510090041 57 33 0.0 3.0 0.00 0.06 0.00 72 1011.8
20260510084528 57 229 0.0 3.0 0.00 0.06 0.00 72 1011.3
20260510083029 58 132 0.0 4.0 0.00 0.06 0.00 73 1010.9
20260510081522 58 200 0.0 5.0 0.00 0.06 0.00 76 1010.7
20260510080028 58 340 0.0 4.0 0.00 0.06 0.00 80 1010.5
20260510074521 58 263 0.0 1.0 0.00 0.10 0.00 80 1010.5
20260510073019 58 193 0.0 0.0 0.00 0.10 0.00 79 1010.5
20260510071521 59 194 0.0 2.0 0.00 0.10 0.00 77 1010.7
20260510070014 59 328 0.0 4.0 0.00 0.10 0.00 75 1010.5
20260510064519 59 36 0.0 1.0 0.00 0.13 0.00 74 1010.3
20260510063013 59 64 0.0 3.0 0.00 0.13 0.00 73 1010.5
20260510061510 60 281 0.0 1.0 0.00 0.13 0.00 73 1010.2
20260510060009 61 328 0.0 2.0 0.00 0.13 0.00 75 1010.3
20260510054507 62 64 0.0 4.0 0.00 0.14 0.00 76 1010.6
20260510053007 62 11 0.0 3.0 0.00 0.14 0.00 75 1010.7
20260510051504 62 356 0.0 3.0 0.00 0.14 0.00 74 1010.5
20260510044600 62 26 0.0 1.0 0.00 0.15 0.00 74 1009.9
20260510043110 61 320 0.0 1.0 0.00 0.15 0.00 74 1009.8
20260510041554 61 61 0.0 1.0 0.00 0.15 0.00 75 1009.6
20260510040059 61 274 0.0 1.0 0.00 0.15 0.00 75 1009.5
20260510034557 61 19 0.0 2.0 0.00 0.16 0.15 74 1009.5
20260510033117 62 253 0.0 1.0 0.00 0.16 0.15 73 1009.4
20260510031601 62 256 0.0 1.0 0.00 0.16 0.15 73 1009.2
20260510030056 62 39 0.0 1.0 0.00 0.16 0.15 73 1009.2
20260510024550 62 20 0.0 1.0 0.00 0.16 0.15 72 1009.2
20260510023049 62 334 0.0 2.0 0.00 0.16 0.15 72 1009.1
20260510021547 63 318 0.0 1.0 0.00 0.16 0.15 72 1008.8
20260510020050 63 120 0.0 1.0 0.00 0.16 0.15 72 1008.7
20260510014549 63 274 0.0 1.0 0.00 0.16 0.15 71 1008.5
20260510013046 63 176 0.0 1.0 0.00 0.16 0.15 70 1008.3
20260510011546 64 134 0.0 0.0 0.00 0.16 0.15 69 1008.2
20260510010046 65 134 0.0 0.0 0.00 0.16 0.15 67 1008.0
20260510004545 66 134 0.0 1.0 0.00 0.17 0.15 64 1007.8
20260510003045 67 79 0.0 1.0 0.00 0.17 0.15 62 1007.7
20260510001545 68 122 0.0 2.0 0.00 0.17 0.15 61 1007.4
20260510000143 68 158 0.0 2.0 0.00 0.17 0.15 58 1007.3
20260509234554 69 345 0.0 3.0 0.00 0.17 0.15 57 1007.1
20260509233047 69 238 0.0 4.0 0.00 0.17 0.15 56 1007.1
20260509231544 70 297 0.0 4.0 0.00 0.17 0.15 55 1007.1